Home   Weather   Lienz   Past weeks
Flag for Austria

Past Weather in Lienz, Tyrol, Austria — Yesterday and Last 2 Weeks

Now
38 °F

Chilly.


Feels Like: 38 °F
Forecast: 59 / 33 °F
Wind: No wind

Location: Lienz

Current Time: Apr 7, 2020 at 3:46:46 am

Latest Report: Apr 7, 2020 at 2:00 am


Visibility: N/A

Pressure: 30.53 "Hg (28.08 "Hg at 677m altitude)

Humidity: 79%

Dew Point: 32 °F

Location of LienzLocation

Past Weather in Lienz — Graph

°F

Lienz Temperature Yesterday

Maximum temperature yesterday: 64 °F (at 4:00 pm)
Minimum temperature yesterday: 31 °F (at 6:00 am)
Average temperature yesterday: 47 °F

High & Low Weather Summary for the Past Weeks

 TemperatureHumidityPressure
High64 °F (Apr 6, 4:00 pm)100% (Mar 28, 5:00 am)30.53 "Hg (Mar 28, 5:00 am)
Low23 °F (Mar 24, 4:00 am)18% (Mar 23, 4:00 pm)29.75 "Hg (Apr 2, 6:00 pm)
Average39 °F60%30.20 "Hg
* Reported Mar 23 1:00 am — Apr 7 2:00 am, Lienz. Weather by CustomWeather, © 2020

Note: Actual official high and low records may vary slightly from our data, if they occured in-between our weather recording intervals... More about our weather records

Lienz Weather History for the Previous 24 Hours

Scroll right to see more
 ConditionsComfort  
Time TempWeatherWind HumidityBarometerVisibility
2:00 am
Tue, Apr 7
38 °FChilly.No wind79%30.53 "HgN/A
1:00 am39 °FChilly.No wind76%30.50 "HgN/A
12:00 am40 °FQuite cool.2 mph74%30.49 "HgN/A
11:00 pm
Mon, Apr 6
43 °FQuite cool.1 mph69%30.46 "HgN/A
10:00 pm46 °FCool.1 mph61%30.42 "HgN/A
8:00 pm55 °FRefreshingly cool.2 mph41%30.30 "HgN/A
6:00 pm64 °FMild.2 mph27%30.24 "HgN/A
4:00 pm64 °FMild.3 mph28%30.27 "HgN/A
3:00 pm63 °FMild.2 mph27%30.30 "HgN/A
2:00 pm61 °FSunny.2 mph30%30.32 "Hg12 mi
1:00 pm59 °FRefreshingly cool.1 mph33%30.35 "HgN/A
12:00 pm55 °FRefreshingly cool.1 mph37%30.39 "HgN/A
11:00 am51 °FCool.No wind40%30.42 "HgN/A
10:00 am45 °FCool.1 mph54%30.46 "HgN/A
9:00 am43 °FQuite cool.No wind60%30.47 "HgN/A
8:00 am31 °FChilly.1 mph84%30.52 "HgN/A
7:00 am31 °FSunny.1 mph85%30.50 "Hg19 mi
6:00 am31 °FChilly.No wind86%30.49 "HgN/A
5:00 am31 °FChilly.No wind83%30.47 "HgN/A
Weather by CustomWeather, © 2020

See weather overview

Advertising